Daviess Cnty AP, Washington,, IN

6:09 AM EST on December 15, 2017 (GMT -0500)
Daviess County

Weather History for KDCY - December, 2013

Change the Weather History Date:

Tuesday, December 3, 2013

  Actual Average (KLWV) Record (KLWV)
Temperature  
Mean Temperature 45 °F -  
Max Temperature 54 °F 46 °F 73 °F (2012)
Min Temperature 37 °F 31 °F 17 °F (2006)
Degree Days  
Heating Degree Days 20    
Moisture  
Dew Point 45 °F    
Average Humidity 96    
Maximum Humidity 100    
Minimum Humidity 88    
Precipitation  
Precipitation 0.00 in - - ()
Sea Level Pressure  
Sea Level Pressure 29.76 in    
Wind  
Wind Speed 6 mph (SSE)    
Max Wind Speed 10 mph    
Max Gust Speed -    
Visibility 4 miles    
Events Fog    
Averages and records for this station are not official NWS values.
T = Trace of Precipitation, MM = Missing Value Source: NWS Daily Summary

Daily Weather History Graph

Daily Weather History Graph

Search for Another Location

Airport or City:

Trip Planner

Search our weather history database for the weather conditions in past years. The results will help you decide how hot, cold, wet, or windy it might be!

Date:

Astronomy

Dec. 03, 2013 Rise Set
Actual Time 7:49 AM EST 5:27 PM EST
Civil Twilight 7:20 AM EST 5:56 PM EST
Nautical Twilight 6:47 AM EST 6:29 PM EST
Astronomical Twilight 6:15 AM EST 7:01 PM EST
Moon 8:18 AM EST (12/3) 6:29 PM EST (12/3)
Length of Visible Light 10h 36m
Length of Day
9h 37m
New Moon, 1% of the Moon is Illuminated
Dec 3
New Moon
Dec 9
First Quarter
Dec 17
Full
Dec 25
Last Quarter
Jan 1
New

Hourly Weather History & Observations

Time (EST) Temp. Windchill Dew Point Humidity Pressure Visibility Wind Dir Wind Speed Gust Speed Precip Events Conditions
12:15 AM 38.7 °F 35.2 °F 36.3 °F 91% 29.77 in 10.0 mi SSE 4.6 mph - N/A   Clear
12:35 AM 37.8 °F 34.2 °F 36.3 °F 95% 29.76 in 10.0 mi South 4.6 mph - N/A   Clear
12:55 AM 41.5 °F 36.4 °F 39.4 °F 92% 29.76 in 10.0 mi South 8.1 mph - N/A   Clear
1:15 AM 41.5 °F 37.8 °F 39.4 °F 92% 29.75 in 10.0 mi South 5.8 mph - N/A   Clear
1:35 AM 40.6 °F 36.0 °F 39.2 °F 95% 29.75 in 7.0 mi South 6.9 mph - N/A   Clear
1:55 AM 42.1 °F 37.1 °F 40.3 °F 93% 29.74 in 7.0 mi South 8.1 mph - N/A   Clear
2:15 AM 43.2 °F 38.4 °F 41.2 °F 93% 29.74 in 7.0 mi South 8.1 mph - N/A   Clear
2:35 AM 41.9 °F 36.9 °F 40.5 °F 95% 29.75 in 7.0 mi South 8.1 mph - N/A   Clear
2:55 AM 41.9 °F 36.3 °F 40.8 °F 96% 29.75 in 7.0 mi South 9.2 mph - N/A   Clear
3:15 AM 42.3 °F 37.3 °F 41.2 °F 96% 29.75 in 5.0 mi South 8.1 mph - N/A   Clear
3:35 AM 42.1 °F 37.1 °F 41.2 °F 97% 29.75 in 5.0 mi South 8.1 mph - N/A   Clear
3:55 AM 42.3 °F 37.9 °F 41.4 °F 97% 29.76 in 5.0 mi South 6.9 mph - N/A   Clear
4:15 AM 41.9 °F 36.9 °F 41.2 °F 97% 29.76 in 4.0 mi South 8.1 mph - N/A   Clear
4:35 AM 41.5 °F - 40.8 °F 97% 29.77 in 4.0 mi Calm Calm - N/A   Scattered Clouds
4:55 AM 39.2 °F 37.0 °F 39.0 °F 99% 29.76 in 2.5 mi ESE 3.5 mph - N/A   Mostly Cloudy
5:15 AM 38.1 °F 35.7 °F 37.9 °F 99% 29.76 in 1.2 mi SE 3.5 mph - N/A   Mostly Cloudy
5:35 AM 39.0 °F 36.8 °F 39.0 °F 100% 29.76 in 0.8 mi SE 3.5 mph - N/A   Overcast
5:55 AM 40.3 °F 35.5 °F 40.3 °F 100% 29.76 in 1.2 mi SSE 6.9 mph - N/A   Overcast
6:15 AM 42.4 °F 37.5 °F 42.4 °F 100% 29.76 in 2.5 mi SSE 8.1 mph - N/A   Overcast
6:35 AM 43.2 °F 39.0 °F 43.2 °F 100% 29.76 in 2.0 mi SSE 6.9 mph - N/A   Overcast
6:55 AM 43.9 °F 39.9 °F 43.9 °F 100% 29.76 in 0.5 mi SSE 6.9 mph - N/A Fog Fog
7:15 AM 44.4 °F 40.0 °F 44.4 °F 100% 29.76 in 0.5 mi SSE 8.1 mph - N/A Fog Fog
7:35 AM 44.6 °F 39.7 °F 44.6 °F 100% 29.76 in 0.2 mi SSE 9.2 mph - N/A Fog Fog
7:55 AM 45.0 °F 40.1 °F 45.0 °F 100% 29.75 in 0.2 mi SSE 9.2 mph - N/A Fog Fog
8:15 AM 45.1 °F 40.8 °F 45.1 °F 100% 29.75 in 0.2 mi SSE 8.1 mph - N/A Fog Fog
8:35 AM 45.7 °F 41.5 °F 45.7 °F 100% 29.77 in 0.2 mi South 8.1 mph - N/A Fog Fog
8:55 AM 46.0 °F 42.5 °F 46.0 °F 100% 29.79 in 0.2 mi South 6.9 mph - N/A Fog Fog
9:15 AM 46.4 °F 42.4 °F 46.4 °F 100% 29.79 in 0.2 mi South 8.1 mph - N/A Fog Fog
9:35 AM 46.4 °F 42.4 °F 46.4 °F 100% 29.79 in 0.2 mi SSE 8.1 mph - N/A Fog Fog
9:55 AM 46.9 °F - 46.9 °F 100% 29.79 in 0.2 mi SSE 9.2 mph - N/A Fog Fog
10:15 AM 47.7 °F - 47.7 °F 100% 29.81 in 0.2 mi South 8.1 mph - N/A Fog Fog
10:35 AM 48.2 °F - 48.2 °F 100% 29.81 in 0.8 mi South 8.1 mph - N/A   Overcast
10:55 AM 48.4 °F - 48.4 °F 100% 29.81 in 0.5 mi South 5.8 mph - N/A Fog Fog
11:15 AM 49.1 °F - 49.1 °F 100% 29.80 in 0.8 mi SSE 8.1 mph - N/A   Overcast
11:32 AM 49.5 °F - 49.5 °F 100% 29.79 in 1.2 mi SSE 8.1 mph - N/A   Overcast
12:15 PM 50.4 °F - 50.4 °F 100% 29.77 in 1.0 mi SSE 9.2 mph - N/A   Overcast
12:35 PM 50.5 °F - 50.5 °F 100% 29.77 in 1.5 mi SSE 6.9 mph - N/A   Overcast
12:55 PM 51.3 °F - 50.9 °F 99% 29.76 in 2.5 mi South 9.2 mph - N/A   Overcast
1:15 PM 51.8 °F - 50.9 °F 97% 29.75 in 3.0 mi SSE 10.4 mph - N/A   Overcast
1:35 PM 51.8 °F - 50.5 °F 95% 29.75 in 3.0 mi SSE 9.2 mph - N/A   Overcast
1:55 PM 52.3 °F - 50.5 °F 94% 29.75 in 4.0 mi SSE 9.2 mph - N/A   Overcast
2:15 PM 52.7 °F - 50.4 °F 92% 29.74 in 4.0 mi South 9.2 mph - N/A   Overcast
2:35 PM 53.4 °F - 50.4 °F 89% 29.74 in 4.0 mi South 8.1 mph - N/A   Overcast
2:55 PM 53.8 °F - 50.5 °F 89% 29.74 in 5.0 mi South 9.2 mph - N/A   Overcast
3:15 PM 53.6 °F - 50.4 °F 89% 29.74 in 5.0 mi SSE 8.1 mph - N/A   Overcast
3:35 PM 53.8 °F - 50.2 °F 88% 29.74 in 5.0 mi SSE 8.1 mph - N/A   Overcast
3:55 PM 53.6 °F - 50.0 °F 88% 29.75 in 5.0 mi South 6.9 mph - N/A   Overcast
4:15 PM 53.6 °F - 50.2 °F 88% 29.75 in 5.0 mi South 4.6 mph - N/A   Overcast
4:35 PM 53.6 °F - 50.4 °F 89% 29.75 in 5.0 mi South 3.5 mph - N/A   Overcast
4:55 PM 53.6 °F - 50.2 °F 88% 29.75 in 5.0 mi Calm Calm - N/A   Overcast
5:15 PM 52.9 °F - 50.2 °F 91% 29.75 in 5.0 mi Calm Calm - N/A   Overcast
5:35 PM 52.2 °F - 50.2 °F 93% 29.76 in 7.0 mi Calm Calm - N/A   Overcast
5:55 PM 51.3 °F - 49.8 °F 95% 29.75 in 5.0 mi East 5.8 mph - N/A   Overcast
6:15 PM 50.9 °F - 49.3 °F 94% 29.75 in 5.0 mi East 5.8 mph - N/A   Overcast
6:35 PM 50.0 °F - 48.7 °F 95% 29.74 in 5.0 mi East 3.5 mph - N/A   Overcast
6:55 PM 49.3 °F - 48.2 °F 96% 29.74 in 5.0 mi SSE 3.5 mph - N/A   Overcast
7:15 PM 49.3 °F - 48.0 °F 95% 29.74 in 5.0 mi SE 3.5 mph - N/A   Overcast
7:35 PM 49.1 °F - 47.5 °F 94% 29.74 in 7.0 mi SSE 5.8 mph - N/A   Overcast
7:55 PM 48.9 °F - 47.3 °F 94% 29.74 in 7.0 mi SSE 4.6 mph - N/A   Scattered Clouds
8:15 PM 46.9 °F - 46.0 °F 97% 29.74 in 5.0 mi South 3.5 mph - N/A   Scattered Clouds
8:35 PM 47.3 °F - 46.2 °F 96% 29.75 in 7.0 mi South 3.5 mph - N/A   Clear
8:55 PM 46.8 °F - 45.1 °F 94% 29.75 in 7.0 mi Calm Calm - N/A   Clear
9:15 PM 45.9 °F - 45.7 °F 99% 29.76 in 5.0 mi Calm Calm - N/A   Mostly Cloudy
9:35 PM 44.6 °F 43.1 °F 44.2 °F 99% 29.76 in 4.0 mi SE 3.5 mph - N/A   Scattered Clouds
9:55 PM 44.6 °F 43.1 °F 44.6 °F 100% 29.77 in 2.5 mi SE 3.5 mph - N/A   Clear
10:15 PM 42.8 °F - 42.8 °F 100% 29.77 in 3.0 mi Calm Calm - N/A   Clear
10:35 PM 42.1 °F - 42.1 °F 100% 29.78 in 3.0 mi Calm Calm - N/A   Clear
10:55 PM 41.5 °F 39.6 °F 41.5 °F 100% 29.77 in 2.5 mi SE 3.5 mph - N/A   Clear
11:15 PM 40.5 °F 38.4 °F 40.5 °F 100% 29.77 in 3.0 mi SSE 3.5 mph - N/A   Clear
11:35 PM 42.1 °F 40.2 °F 42.1 °F 100% 29.77 in 4.0 mi SSE 3.5 mph - N/A   Clear
11:55 PM 42.1 °F 39.2 °F 42.1 °F 100% 29.76 in 4.0 mi SSE 4.6 mph - N/A   Clear